Weather History for Andrews, TX

Change the Weather History Date:

Sunday, May 19, 2013

  Actual Average (KMAF) Record (KMAF)
Temperature  
Mean Temperature 78 °F 74 °F  
Max Temperature 92 °F 88 °F 103 °F (1996)
Min Temperature 64 °F 61 °F 46 °F (2000)
Cooling Degree Days 13 10  
Month to date cooling degree days 145  
Year to date cooling degree days 253  
Growing Degree Days 28 (Base 50)    
Moisture  
Dew Point 31 °F    
Average Humidity 24    
Maximum Humidity 78    
Minimum Humidity 7    
Precipitation  
Precipitation 0.00 in 0.06 in 1.66 in (1961)
Month to date precipitation 0.88  
Year to date precipitation 3.40  
Sea Level Pressure  
Sea Level Pressure 29.82 in    
Wind  
Wind Speed 11 mph (WSW)    
Max Wind Speed 18 mph    
Max Gust Speed 28 mph    
Visibility 10 miles    
Events      
T = Trace of Precipitation, MM = Missing Value Source: NWS Daily Summary

Daily Weather History Graph

Daily Weather History Graph

Search for Another Location

Airport:

Trip Planner

Search our weather history database for the weather conditions in past years. The results will help you decide how hot, cold, wet, or windy it might be!

Date:

Astronomy

May. 19, 2013 Rise Set
Actual Time 6:49 AM CDT 8:44 PM CDT
Civil Twilight 6:22 AM CDT 9:11 PM CDT
Nautical Twilight 5:49 AM CDT 9:44 PM CDT
Astronomical Twilight 5:14 AM CDT 10:19 PM CDT
Moon 3:09 PM CDT (5/19) 2:53 AM CDT (5/19)
Length of Visible Light 14h 49m
Length of Day
13h 54m
Waxing Gibbous, 65% of the Moon is Illuminated
May 19
Waxing Gibbous
May 24
Full
May 31
Last Quarter
Jun 8
New
Jun 16
First Quarter

Hourly Weather History & Observations

Time (CDT) Temp. Dew Point Humidity Pressure Visibility Wind Dir Wind Speed Gust Speed Precip Events Conditions
12:15 AM 79.3 °F 18.9 °F 10% 29.81 in 10.0 mi West 11.5 mph - N/A   Clear
12:35 AM 77.4 °F 18.9 °F 11% 29.81 in 10.0 mi West 10.4 mph - N/A   Clear
12:55 AM 76.6 °F 18.1 °F 11% 29.80 in 10.0 mi West 10.4 mph - N/A   Clear
1:15 AM 77.9 °F 18.5 °F 11% 29.80 in 10.0 mi West 8.1 mph - N/A   Clear
1:35 AM 73.2 °F 17.4 °F 12% 29.82 in 10.0 mi SSW 12.7 mph - N/A   Clear
1:55 AM 76.1 °F 22.5 °F 14% 29.82 in 10.0 mi South 6.9 mph - N/A   Clear
2:15 AM 74.5 °F 51.8 °F 45% 29.82 in 10.0 mi SSW 11.5 mph 17.3 mph N/A   Clear
2:35 AM 73.8 °F 59.0 °F 60% 29.82 in 10.0 mi SSW 13.8 mph 18.4 mph N/A   Scattered Clouds
2:55 AM 73.0 °F 59.7 °F 63% 29.83 in 10.0 mi SSW 10.4 mph - N/A   Mostly Cloudy
3:15 AM 72.0 °F 59.9 °F 66% 29.83 in 10.0 mi SSW 9.2 mph - N/A   Overcast
3:35 AM 71.2 °F 60.4 °F 69% 29.82 in 10.0 mi SSW 9.2 mph - N/A   Overcast
3:55 AM 70.9 °F 61.2 °F 71% 29.82 in 10.0 mi SW 9.2 mph - N/A   Overcast
4:15 AM 70.7 °F 61.7 °F 73% 29.82 in 10.0 mi SSW 10.4 mph - N/A   Overcast
4:35 AM 70.0 °F 61.7 °F 75% 29.82 in 10.0 mi SSW 10.4 mph - N/A   Overcast
4:55 AM 68.9 °F 61.2 °F 76% 29.82 in 10.0 mi SW 10.4 mph - N/A   Mostly Cloudy
5:15 AM 68.0 °F 60.8 °F 78% 29.82 in 10.0 mi SSW 9.2 mph - N/A   Scattered Clouds
5:35 AM 67.1 °F 59.4 °F 76% 29.82 in 10.0 mi SSW 9.2 mph - N/A   Scattered Clouds
5:55 AM 66.9 °F 56.8 °F 70% 29.82 in 10.0 mi SW 10.4 mph - N/A   Clear
6:15 AM 66.2 °F 52.3 °F 61% 29.82 in 10.0 mi SSW 11.5 mph - N/A   Clear
6:35 AM 65.3 °F 51.4 °F 61% 29.82 in 10.0 mi SW 10.4 mph - N/A   Clear
7:15 AM 64.8 °F 45.0 °F 49% 29.84 in 10.0 mi SW 9.2 mph - N/A   Clear
7:35 AM 66.0 °F 39.0 °F 37% 29.85 in 10.0 mi SW 9.2 mph - N/A   Clear
7:55 AM 66.7 °F 36.9 °F 33% 29.87 in 10.0 mi WSW 3.5 mph - N/A   Clear
8:15 AM 70.0 °F 31.6 °F 24% 29.87 in 10.0 mi WSW 9.2 mph - N/A   Clear
8:35 AM 71.8 °F 28.6 °F 20% 29.87 in 10.0 mi West 6.9 mph - N/A   Clear
8:55 AM 73.6 °F 26.1 °F 17% 29.89 in 10.0 mi West 9.2 mph - N/A   Clear
9:15 AM 75.9 °F 25.7 °F 16% 29.89 in 10.0 mi WNW 10.4 mph - N/A   Clear
9:55 AM 78.6 °F 27.7 °F 15% 29.89 in 10.0 mi NW 10.4 mph - N/A   Overcast
10:15 AM 80.2 °F 30.2 °F 16% 29.89 in 10.0 mi NW 10.4 mph - N/A   Overcast
10:35 AM 81.1 °F 30.2 °F 16% 29.89 in 10.0 mi NNW 8.1 mph - N/A   Overcast
10:55 AM 81.9 °F 30.4 °F 15% 29.89 in 10.0 mi NNW 9.2 mph - N/A   Overcast
11:15 AM 83.3 °F 29.7 °F 14% 29.89 in 10.0 mi NW 10.4 mph - N/A   Overcast
11:35 AM 82.9 °F 28.0 °F 14% 29.88 in 10.0 mi WNW 13.8 mph 17.3 mph N/A   Overcast
11:55 AM 83.7 °F 27.1 °F 13% 29.87 in 10.0 mi West 5.8 mph 19.6 mph N/A   Overcast
12:15 PM 85.3 °F 27.1 °F 12% 29.87 in 10.0 mi WSW 15.0 mph 24.2 mph N/A   Overcast
12:35 PM 85.3 °F 26.6 °F 12% 29.86 in 10.0 mi NW 8.1 mph - N/A   Overcast
12:55 PM 87.1 °F 25.0 °F 10% 29.86 in 10.0 mi WSW 10.4 mph 21.9 mph N/A   Overcast
1:15 PM 86.9 °F 25.2 °F 11% 29.85 in 10.0 mi WNW 9.2 mph 19.6 mph N/A   Overcast
1:35 PM 87.6 °F 23.4 °F 10% 29.84 in 10.0 mi WNW 9.2 mph 21.9 mph N/A   Overcast
2:15 PM 88.5 °F 24.4 °F 10% 29.83 in 10.0 mi West 17.3 mph 23.0 mph N/A   Overcast
2:35 PM 89.2 °F 23.7 °F 9% 29.82 in 10.0 mi WNW 11.5 mph 23.0 mph N/A   Overcast
3:15 PM 90.9 °F 22.5 °F 8% 29.81 in 10.0 mi West 13.8 mph 21.9 mph N/A   Overcast
3:35 PM 91.4 °F 21.4 °F 8% 29.80 in 10.0 mi West 12.7 mph 20.7 mph N/A   Mostly Cloudy
3:55 PM 90.9 °F 20.5 °F 8% 29.79 in 10.0 mi WSW 12.7 mph 20.7 mph N/A   Clear
4:15 PM 92.1 °F 21.6 °F 8% 29.78 in 10.0 mi West 16.1 mph 23.0 mph N/A   Clear
4:35 PM 91.9 °F 19.2 °F 7% 29.77 in 10.0 mi WNW 18.4 mph 24.2 mph N/A   Clear
4:55 PM 91.6 °F 19.6 °F 7% 29.77 in 10.0 mi West 16.1 mph - N/A   Clear
5:15 PM 91.8 °F 20.7 °F 8% 29.76 in 10.0 mi North - - N/A   Clear
5:35 PM 91.8 °F 21.0 °F 8% 29.76 in 10.0 mi West 15.0 mph 23.0 mph N/A   Clear
5:55 PM 91.6 °F 23.4 °F 8% 29.75 in 10.0 mi WSW 13.8 mph 21.9 mph N/A   Clear
6:15 PM 91.8 °F 22.3 °F 8% 29.74 in 10.0 mi SW 11.5 mph 27.6 mph N/A   Clear
6:35 PM 91.2 °F 22.1 °F 8% 29.74 in 10.0 mi WSW 17.3 mph 23.0 mph N/A   Clear
6:55 PM 90.5 °F 21.6 °F 8% 29.75 in 10.0 mi SW 18.4 mph 26.5 mph N/A   Clear
7:15 PM 90.3 °F 21.4 °F 8% 29.74 in 10.0 mi North - - N/A   Clear
7:35 PM 89.4 °F 20.7 °F 8% 29.75 in 10.0 mi WSW 12.7 mph 24.2 mph N/A   Clear
7:55 PM 88.7 °F 21.0 °F 8% 29.75 in 10.0 mi WSW 12.7 mph 24.2 mph N/A   Clear
8:15 PM 87.8 °F 20.7 °F 9% 29.76 in 10.0 mi WSW 13.8 mph 19.6 mph N/A   Clear
8:35 PM 86.7 °F 20.7 °F 9% 29.77 in 10.0 mi WSW 11.5 mph - N/A   Clear
8:55 PM 85.3 °F 21.2 °F 9% 29.77 in 10.0 mi WSW 11.5 mph - N/A   Clear
9:15 PM 83.5 °F 21.6 °F 10% 29.78 in 10.0 mi WSW 8.1 mph - N/A   Clear
9:35 PM 81.7 °F 21.9 °F 11% 29.79 in 10.0 mi WSW 6.9 mph - N/A   Clear
9:55 PM 80.1 °F 22.1 °F 12% 29.79 in 10.0 mi SW 8.1 mph - N/A   Clear
10:15 PM 78.8 °F 22.8 °F 13% 29.80 in 10.0 mi North - - N/A   Clear
10:35 PM 79.2 °F 22.8 °F 12% 29.80 in 10.0 mi WSW 10.4 mph - N/A   Clear
10:55 PM 80.6 °F 23.0 °F 12% 29.81 in 10.0 mi WSW 12.7 mph - N/A   Clear
11:15 PM 81.1 °F 23.7 °F 12% 29.81 in 10.0 mi WSW 10.4 mph 17.3 mph N/A   Clear
11:35 PM 79.5 °F 23.5 °F 13% 29.81 in 10.0 mi WSW 9.2 mph - N/A   Clear
11:55 PM 78.3 °F 24.3 °F 14% 29.81 in 10.0 mi West 9.2 mph - N/A   Clear